Terminal Aerodrome Forecast
Issued by NWS Quad Cities IA IL

Home | Current Version | Previous Version | Text Only | Print | Product List | Glossary On
Versions: 1 2 3 4 5 6 7 8 9 10 11 12 13 14 15 16 17 18
000
FTUS43 KDVN 151700
TAFDBQ
TAF
KDBQ 151726Z 1518/1618 01011KT P6SM VCSH SCT040 OVC060
      TEMPO 1518/1519 -SHRA OVC025
     FM152000 36011KT P6SM SCT025 BKN040
     FM152300 35003KT P6SM SKC
     FM161300 20004KT P6SM SKC=

USA.gov is the U.S. government's official web portal to all federal, state and local government web resources and services.